Погода в Поречье

Россия / Приморский край     44°05′35″N   131°35′02″E
темп.,
°C
ветер,
м/с
пор.,
м/с
влажн.,
%
обл.,
%
осадки,
мм/ч
давл.,
гПа
погр.,
м
14 июня, пн
пн1401:00+17с118898 0.0 100811
04:00+17з1189100 0.0 100711
07:00+18сз118894 0.1 100834
10:00+23вюв227383 0.1 1008587
13:00+26вюв33635 0.0 1007944
16:00+25вюв44634 0.0 1006588
19:00+20вюв68763 0.0 1006359
22:00+14вюв359298 0.0 1007141
15 июня, вт
вт1501:00+13ююв3595100 0.0 1008163
04:00+13ююв4889100 0.0 1008311
07:00+14ююв598399 0.0 1009504
10:00+16ю587498 0.0 1009739
13:00+19ю6867100 0.0 1008957
16:00+21ююв6761100 0.0 1007912
19:00+18ююв5874100 0.0 1007465
22:00+14ююв4686100 0.0 1009177
16 июня, ср
ср1601:00+12юв239699 0.0 100969
04:00+11ююв2297100 0.0 100943
07:00+13юв2392100 0.0 1010165
10:00+18юв3374100 0.0 1010653
13:00+22вюв4462100 0.0 1008867
16:00+23юв6758100 0.0 1007639
19:00+19юв6107180 0.0 1006366
22:00+13вюв35910 0.0 1008124
17 июня, чт
чт1701:00+11юв339713 0.0 100877
04:00+10юв239832 0.0 100774
07:00+13ююв369129 0.0 1007284
10:00+19ююв5766100 0.0 1005808
13:00+22ююв8955100 0.0 10041019
16:00+22ююв91054100 0.0 10021019
19:00+17ююв5974100 0.0 1003466
22:00+14ююв4883100 0.0 1003363
18 июня, пт
пт1801:00+14ююв5884100 0.0 1002401
04:00+14ююв51289100 0.0 1001850
07:00+14ююв51196100 1.1 1001830
10:00+15ююв71395100 3.9 1000712
13:00+16ююв61292100 0.5 999955
16:00+18ю8128256 1.5 9981060
19:00+17ю51183100 0.1 998839
22:00+16ююв41190100 0.4 998614